Wind_Speed
39 38 38 39 40 40 39 35 33 31 30 29 28 27 25 25 24 24 22 21 20 18 18 16 15 13 12 11 10 9 7 6 5 4 4 4 4 4 4 5 5 5 6 6 7 7 8 9 9
41 40 40 41 42 42 40 36 33 33 32 31 31 29 28 27 26 25 23 22 21 20 19 18 16 15 14 12 11 10 9 8 7 6 6 5 5 5 6 6 6 6 6 7 7 8 9 9 10
43 42 42 43 43 42 39 37 35 34 34 33 33 32 30 29 27 26 25 24 23 22 20 19 18 17 15 14 13 12 11 10 9 8 7 7 7 6 6 6 6 7 7 8 8 9 10 10 11
45 45 45 45 44 41 40 38 37 36 35 35 34 34 32 30 29 28 27 26 25 23 22 21 19 18 17 16 14 13 12 11 10 9 9 8 8 8 8 7 7 8 8 9 9 10 10 11 11
45 47 48 47 44 42 41 39 38 38 37 36 36 35 34 32 31 30 29 28 26 25 24 22 21 20 18 17 16 15 14 12 11 11 10 10 9 9 9 9 9 9 9 10 10 11 11 12 12
47 48 50 48 44 42 41 40 39 39 38 37 37 36 35 33 32 31 30 29 28 26 25 24 23 21 20 18 18 16 15 14 13 12 12 11 11 10 10 10 10 10 10 11 11 12 12 13 13
49 49 50 48 45 43 42 41 40 39 39 39 37 37 35 34 33 32 31 31 30 28 27 26 25 23 21 20 19 18 17 16 15 14 14 13 12 12 11 11 11 11 12 12 12 13 14 14 15
50 50 50 49 47 44 42 42 41 40 40 40 39 37 36 34 33 32 32 32 31 30 28 27 26 25 23 22 20 19 18 17 17 16 16 15 14 13 13 13 13 13 13 14 14 15 16 16 16
48 50 51 48 46 44 43 43 42 42 41 41 41 38 37 36 35 34 33 33 32 31 30 28 28 26 25 24 22 21 20 19 18 17 17 17 16 15 15 15 15 15 15 16 16 17 17 17 18
47 49 49 47 46 44 43 43 43 43 42 41 41 40 38 38 37 36 34 34 33 32 31 30 29 28 27 26 24 23 22 21 20 19 19 18 18 17 17 17 17 17 17 17 18 18 18 19 19
46 47 48 47 46 44 44 44 43 44 43 42 41 41 40 39 38 37 36 35 35 34 33 32 30 29 29 28 26 25 24 23 22 21 21 20 20 19 19 19 19 19 19 19 19 19 20 20 21
46 46 47 47 46 45 45 44 44 44 43 43 43 43 42 40 38 38 38 37 36 35 35 33 32 31 31 30 29 27 26 25 24 24 23 22 21 21 21 21 21 21 21 21 21 21 22 22 22
45 46 46 47 47 46 45 45 44 44 44 44 44 44 43 41 40 39 39 39 38 37 36 34 33 33 32 32 30 29 28 27 26 25 25 24 23 23 22 22 23 23 22 23 23 23 24 24 24
42 45 46 47 47 46 45 46 46 44 44 44 45 45 44 43 42 41 40 40 40 39 37 36 35 34 34 33 32 31 30 29 28 27 26 26 25 24 24 24 24 24 25 25 24 24 25 25 26
41 43 44 46 46 46 46 47 46 44 44 44 45 46 45 45 44 42 42 42 41 40 39 38 37 35 35 35 34 32 32 31 30 29 29 28 28 26 26 26 26 26 26 27 26 26 26 26 27
41 42 43 44 44 46 47 46 46 45 45 44 45 46 46 45 45 44 44 43 42 42 41 39 38 37 36 36 35 35 34 33 32 31 30 30 29 29 28 28 29 28 28 28 28 28 27 28 28
43 43 42 43 44 45 46 46 45 45 45 45 45 46 46 46 46 45 45 44 43 42 42 41 40 40 38 37 36 36 35 34 34 33 32 32 31 31 31 31 30 30 30 29 29 29 29 29 29
41 43 42 42 43 44 45 45 45 45 45 45 45 46 46 47 47 46 46 46 45 43 42 42 41 41 40 39 38 37 36 35 35 35 35 34 33 32 33 33 32 32 32 31 31 31 31 30 30
38 40 42 42 42 43 44 44 45 44 45 45 45 46 46 47 47 47 47 47 46 44 43 42 42 41 41 40 40 39 38 37 36 36 37 36 35 34 34 34 34 33 33 33 33 32 32 32 32
35 37 39 40 40 42 44 44 45 46 45 45 46 46 46 47 47 47 46 45 45 44 43 43 42 42 41 41 41 40 40 39 38 38 38 37 37 36 36 35 35 35 34 33 33 33 33 33 33
33 35 36 36 38 39 41 44 45 46 45 45 46 46 46 47 47 47 47 45 44 45 44 44 43 42 41 42 41 40 40 41 41 40 39 39 39 38 38 37 36 35 34 34 33 33 34 34 34
30 32 33 34 34 36 39 41 44 45 46 45 46 46 45 46 47 47 47 46 45 45 45 45 44 44 43 41 41 41 40 41 41 41 40 40 39 39 38 37 36 36 35 34 34 34 34 34 34
27 30 31 32 33 34 36 39 43 44 45 45 45 46 45 46 47 47 47 47 46 46 47 46 45 44 43 41 41 41 40 39 39 39 39 39 40 39 39 39 38 37 36 35 35 35 35 36 36
25 27 29 31 32 33 35 36 40 42 43 44 45 45 45 46 47 48 48 48 48 47 47 47 46 45 44 43 42 42 42 41 40 39 40 40 40 40 40 39 39 37 36 36 36 36 37 37 37
23 25 26 29 31 33 33 35 38 39 41 42 44 45 45 46 46 47 47 48 47 48 47 47 46 46 45 44 44 43 43 42 42 42 41 41 41 41 41 40 39 38 38 37 37 37 38 38 38
21 24 26 28 30 33 34 35 35 36 38 40 42 44 45 46 46 45 47 48 48 48 47 47 47 46 45 45 45 44 43 43 43 43 42 41 41 41 41 40 40 39 38 38 38 39 38 38 39
19 23 25 26 28 30 33 34 33 34 35 36 39 41 43 43 43 44 44 45 46 47 47 47 47 46 46 46 46 46 45 43 43 44 43 42 42 42 42 42 42 41 40 39 39 39 38 39 39
18 21 23 24 26 29 31 33 34 34 35 35 36 38 40 41 41 42 43 44 44 44 45 46 46 46 46 47 47 46 45 44 43 43 44 43 43 42 42 42 42 41 41 40 39 39 40 40 41
20 21 23 25 25 27 29 31 32 33 34 35 35 36 38 40 41 42 42 43 43 43 44 44 45 46 46 47 47 46 45 44 44 44 43 43 42 42 41 41 42 42 42 41 41 40 40 41 41
20 22 23 25 26 26 28 30 31 32 33 34 36 37 38 39 40 42 41 41 42 42 43 43 44 45 46 46 46 46 45 45 45 44 44 44 43 42 42 41 42 41 41 41 41 41 42 42 42
Wind_Direction
236 235 235 235 236 236 237 236 233 231 230 229 228 227 225 224 222 223 221 221 221 220 219 219 219 221 221 221 221 223 226 227 232 241 251 266 281 293 304 315 320 321 324 326 327 327 326 326 327
235 235 234 235 235 236 236 235 234 232 231 229 228 227 226 225 224 224 223 223 223 222 221 221 222 224 224 224 225 226 230 234 238 245 254 265 276 286 297 305 310 314 317 318 319 321 320 322 324
236 234 234 235 236 236 236 234 233 232 230 229 228 228 226 225 225 224 223 223 223 223 223 223 224 225 225 225 228 230 233 237 242 247 255 264 272 280 289 294 297 303 307 311 314 316 316 317 319
235 234 234 235 236 236 236 234 232 231 230 229 228 228 227 226 226 225 224 224 224 224 223 224 226 226 227 226 228 232 235 240 244 248 254 261 267 275 281 287 289 295 299 303 309 312 312 313 315
234 234 234 234 235 235 235 234 232 231 230 229 228 228 226 225 225 225 225 224 224 224 223 224 225 226 227 228 228 231 235 240 244 248 254 259 264 272 278 282 286 291 294 299 304 307 308 310 312
234 234 234 234 234 234 233 233 232 231 230 229 228 228 226 225 225 225 225 224 224 224 224 223 224 226 227 229 230 232 235 240 245 248 253 257 262 269 276 280 283 288 291 296 300 304 305 307 310
234 234 234 234 234 233 232 231 231 230 229 228 228 227 226 225 224 225 224 224 224 224 224 224 225 225 227 230 231 233 237 241 245 250 253 256 260 268 273 277 281 284 288 292 297 300 302 304 307
234 233 233 233 233 233 232 231 229 228 227 228 228 228 225 224 224 224 224 224 223 223 223 224 226 226 228 230 232 234 238 242 246 250 254 256 260 266 271 275 278 282 286 290 294 297 299 302 304
233 233 233 232 233 232 232 230 228 227 227 227 228 228 227 225 224 224 224 224 223 223 224 225 226 227 229 231 232 235 238 241 246 251 254 256 259 263 268 272 276 281 285 288 290 293 296 300 302
233 233 233 232 232 232 231 229 227 226 226 227 227 228 227 226 225 225 225 224 223 223 224 225 226 228 229 231 233 236 238 241 246 250 254 256 259 262 267 271 275 279 284 287 290 292 295 297 299
233 233 232 231 231 230 229 228 227 226 225 225 227 227 227 227 225 225 225 224 223 223 224 225 226 228 230 231 233 236 239 242 246 249 252 255 258 262 267 271 274 278 281 284 287 291 293 295 298
231 232 232 231 230 229 228 227 227 226 225 225 226 226 226 226 225 224 226 224 222 223 224 225 227 229 230 231 233 236 240 243 247 250 251 254 257 261 266 271 273 276 279 281 284 288 291 294 296
231 231 231 230 230 229 227 227 226 226 225 225 225 225 226 225 226 225 225 224 222 223 225 226 228 229 230 232 233 236 239 242 246 249 251 253 256 261 265 270 273 274 277 280 283 286 289 291 294
231 230 230 229 229 229 227 226 226 224 224 225 225 225 225 225 225 227 226 224 222 223 225 226 229 230 231 232 234 236 239 242 246 249 252 254 256 261 265 269 273 274 276 280 284 286 288 290 294
230 230 230 229 229 229 228 227 226 225 225 225 225 225 225 226 226 227 227 225 225 224 225 228 229 230 232 232 234 236 239 243 246 248 251 254 256 260 264 268 271 273 275 278 282 284 286 289 292
228 229 229 229 229 229 229 228 227 226 226 225 225 225 225 226 226 226 226 225 226 227 228 229 229 230 232 233 236 238 241 243 246 249 251 253 256 259 263 267 270 273 275 276 279 283 286 289 290
226 227 228 229 228 229 229 229 228 228 227 226 225 226 226 227 227 225 225 226 226 227 229 230 231 231 233 235 237 239 241 244 246 248 251 253 256 260 263 266 269 272 274 276 278 281 285 288 289
227 228 227 229 229 229 230 229 228 228 228 227 226 226 226 227 227 226 225 226 227 228 230 230 231 233 235 236 237 239 241 244 246 249 251 254 257 260 263 265 268 271 273 275 277 279 283 286 288
229 228 227 228 229 229 229 229 228 228 228 228 227 226 227 226 226 227 226 226 227 228 230 230 231 233 235 236 238 240 241 244 248 250 252 255 257 260 262 264 266 269 272 274 276 279 282 285 287
226 227 228 229 229 230 230 229 228 228 227 228 227 226 226 226 226 226 227 228 228 228 229 231 231 233 235 237 239 240 242 245 248 251 252 255 257 258 259 263 265 269 271 272 274 278 281 284 286
226 226 227 228 229 232 232 231 229 228 228 227 227 227 226 226 227 226 227 228 228 229 229 230 231 234 236 238 239 241 244 246 249 251 253 255 257 259 261 262 265 268 270 271 274 277 280 283 286
226 224 227 229 230 232 232 234 230 229 227 226 226 226 227 226 226 227 227 228 228 229 229 230 232 234 236 238 240 242 245 248 250 252 254 256 257 258 261 263 264 267 269 271 274 277 280 283 285
227 226 227 230 233 233 233 235 232 229 229 227 227 227 228 228 226 227 229 229 228 229 230 231 233 234 235 238 240 241 243 247 250 252 254 255 257 259 261 262 263 266 268 271 274 277 279 281 284
229 228 228 231 232 234 233 236 234 231 230 229 229 229 229 230 228 228 229 227 228 228 230 231 233 235 237 238 240 242 245 248 251 253 255 257 258 260 262 262 263 265 268 271 273 277 279 280 283
229 228 228 231 233 234 234 237 236 233 232 231 230 230 230 231 231 230 230 229 229 231 232 232 234 236 238 240 242 244 246 249 252 254 256 258 259 259 260 262 265 266 268 270 273 275 278 280 283
229 230 231 234 237 236 234 236 235 233 232 232 232 231 231 232 232 232 232 230 231 233 234 234 235 237 239 241 243 245 247 250 252 254 255 257 258 259 261 263 266 267 270 271 272 274 277 280 283
232 231 232 238 241 241 238 236 234 232 232 231 232 231 232 233 234 234 233 232 232 233 234 236 236 238 240 242 244 246 247 249 251 253 255 257 259 260 262 264 266 267 269 271 272 274 277 280 283
238 236 234 236 240 242 241 239 235 232 232 232 232 232 232 232 233 232 233 233 233 234 235 235 236 239 241 242 244 246 247 248 250 253 255 257 260 262 264 265 265 267 268 271 273 275 278 280 282
240 239 236 239 239 241 242 240 237 237 236 234 234 233 232 233 233 232 233 234 234 234 235 237 237 239 241 242 243 245 247 249 250 252 254 257 260 262 264 265 265 266 267 269 272 276 278 280 282
245 241 240 241 242 242 244 241 238 240 239 238 235 234 234 233 233 234 234 235 235 236 236 236 238 239 241 243 244 245 247 249 251 253 254 257 259 262 263 264 266 266 267 270 273 275 277 279 281
Height
5816 5819 5822 5824 5826 5828 5831 5836 5840 5843 5846 5848 5850 5852 5855 5858 5861 5865 5865 5866 5867 5869 5870 5872 5873 5874 5875 5876 5877 5878 5878 5879 5879 5879 5879 5879 5879 5879 5878 5878 5877 5876 5876 5875 5874 5873 5873 5872 5870
5808 5811 5814 5816 5818 5821 5827 5831 5835 5838 5841 5843 5845 5848 5850 5853 5856 5858 5860 5862 5864 5866 5867 5869 5871 5872 5873 5874 5875 5876 5877 5877 5878 5878 5878 5878 5878 5877 5877 5876 5876 5875 5875 5874 5873 5872 5871 5870 5869
5800 5802 5805 5807 5810 5816 5822 5826 5830 5832 5834 5837 5840 5842 5845 5848 5851 5854 5856 5858 5861 5863 5864 5866 5868 5870 5871 5872 5873 5874 5875 5875 5876 5876 5876 5876 5876 5876 5876 5875 5875 5874 5873 5873 5872 5871 5870 5869 5867
5790 5793 5796 5799 5804 5811 5815 5819 5823 5825 5828 5831 5834 5837 5840 5844 5846 5849 5852 5854 5857 5859 5861 5863 5865 5867 5868 5869 5871 5872 5873 5873 5874 5874 5874 5875 5874 5874 5874 5874 5873 5873 5872 5871 5870 5869 5868 5867 5866
5780 5783 5786 5790 5797 5803 5807 5812 5815 5818 5821 5825 5828 5831 5834 5838 5840 5844 5847 5849 5852 5855 5857 5859 5862 5864 5865 5867 5868 5869 5870 5871 5872 5872 5872 5872 5872 5872 5872 5872 5871 5871 5870 5869 5868 5867 5866 5865 5863
5770 5773 5778 5782 5790 5795 5800 5804 5808 5811 5815 5818 5821 5825 5828 5832 5835 5838 5841 5844 5847 5850 5853 5855 5858 5860 5862 5864 5865 5866 5867 5868 5869 5870 5870 5870 5870 5870 5870 5870 5869 5869 5868 5867 5866 5865 5864 5862 5861
5761 5764 5769 5776 5782 5787 5792 5796 5800 5804 5808 5811 5815 5818 5822 5826 5829 5832 5836 5839 5842 5846 5849 5851 5854 5856 5858 5860 5862 5863 5864 5866 5866 5867 5867 5868 5868 5868 5868 5867 5867 5866 5865 5865 5864 5863 5861 5860 5858
5750 5756 5760 5766 5773 5780 5785 5788 5792 5796 5800 5804 5808 5812 5817 5820 5824 5827 5830 5834 5837 5840 5844 5847 5850 5852 5854 5856 5858 5860 5861 5862 5863 5864 5864 5865 5865 5865 5865 5865 5864 5864 5863 5862 5861 5860 5859 5857 5856
5740 5746 5751 5758 5765 5772 5776 5780 5784 5788 5793 5797 5801 5806 5811 5814 5817 5821 5825 5828 5832 5835 5839 5842 5845 5848 5850 5852 5854 5856 5857 5858 5860 5861 5861 5862 5862 5862 5862 5862 5861 5861 5860 5859 5858 5857 5856 5854 5852
5730 5736 5745 5752 5757 5762 5767 5772 5776 5781 5785 5790 5794 5799 5803 5807 5811 5815 5819 5823 5827 5830 5834 5837 5840 5843 5845 5848 5850 5852 5853 5854 5856 5857 5858 5858 5858 5858 5858 5858 5858 5857 5857 5856 5854 5853 5852 5851 5849
5721 5728 5736 5741 5747 5752 5758 5763 5767 5772 5778 5783 5788 5792 5796 5800 5805 5809 5813 5817 5821 5824 5828 5832 5835 5838 5840 5843 5845 5847 5849 5850 5851 5853 5853 5854 5854 5854 5854 5854 5854 5853 5853 5852 5851 5850 5848 5847 5845
5713 5720 5726 5732 5737 5743 5749 5754 5759 5764 5771 5776 5780 5784 5788 5793 5798 5802 5806 5810 5814 5818 5822 5826 5830 5832 5835 5838 5840 5842 5844 5845 5847 5848 5849 5849 5850 5850 5850 5850 5850 5849 5849 5848 5847 5846 5844 5843 5841
5703 5710 5716 5722 5728 5734 5740 5745 5751 5756 5762 5767 5771 5776 5781 5786 5790 5795 5799 5803 5807 5812 5816 5820 5823 5826 5829 5832 5835 5837 5839 5840 5842 5843 5844 5845 5845 5846 5846 5846 5845 5845 5844 5843 5843 5841 5840 5838 5837
5695 5701 5707 5713 5719 5725 5731 5737 5742 5748 5753 5758 5763 5768 5773 5778 5783 5787 5792 5796 5801 5805 5810 5814 5817 5820 5824 5826 5829 5831 5833 5835 5836 5837 5839 5840 5840 5841 5841 5841 5840 5840 5840 5839 5838 5836 5835 5833 5832
5686 5692 5697 5703 5709 5716 5722 5727 5734 5741 5745 5750 5755 5760 5766 5771 5776 5780 5785 5789 5794 5798 5802 5806 5811 5813 5817 5820 5823 5825 5827 5829 5830 5832 5833 5834 5835 5835 5835 5836 5835 5835 5834 5834 5832 5831 5830 5828 5826
5677 5682 5688 5695 5701 5707 5714 5720 5728 5732 5736 5742 5747 5752 5758 5763 5768 5773 5777 5782 5786 5791 5795 5799 5803 5807 5810 5814 5816 5819 5821 5823 5824 5826 5827 5828 5829 5830 5830 5830 5830 5829 5829 5828 5827 5826 5824 5823 5821
5666 5673 5681 5688 5693 5699 5705 5712 5719 5723 5728 5734 5739 5745 5750 5756 5761 5766 5770 5775 5779 5783 5788 5792 5795 5799 5803 5806 5809 5812 5814 5816 5818 5820 5821 5822 5823 5824 5824 5824 5824 5823 5823 5822 5821 5820 5818 5817 5815
5661 5668 5675 5680 5686 5691 5697 5704 5710 5715 5720 5726 5731 5736 5742 5747 5753 5758 5762 5767 5772 5776 5780 5784 5788 5792 5795 5799 5802 5805 5807 5809 5811 5813 5814 5815 5817 5817 5818 5818 5818 5817 5817 5816 5815 5814 5812 5810 5808
5656 5662 5667 5673 5678 5684 5689 5696 5701 5706 5712 5718 5723 5728 5734 5739 5744 5749 5754 5759 5764 5769 5773 5777 5781 5784 5788 5791 5795 5797 5800 5802 5804 5806 5807 5808 5810 5810 5811 5811 5811 5810 5810 5809 5808 5807 5806 5804 5802
5647 5653 5659 5665 5670 5675 5681 5687 5692 5697 5704 5710 5715 5721 5726 5731 5736 5741 5746 5751 5757 5761 5765 5770 5773 5777 5780 5784 5787 5790 5793 5795 5797 5798 5800 5801 5802 5803 5803 5803 5804 5803 5803 5802 5801 5800 5799 5797 5795
5641 5647 5653 5658 5663 5667 5672 5678 5683 5689 5695 5701 5707 5713 5718 5723 5728 5733 5738 5744 5749 5753 5758 5762 5766 5769 5772 5775 5779 5782 5784 5786 5789 5791 5792 5793 5794 5795 5795 5796 5796 5796 5796 5795 5794 5793 5792 5790 5788
5636 5642 5647 5651 5655 5659 5664 5669 5675 5680 5686 5693 5699 5705 5710 5715 5720 5725 5730 5735 5740 5745 5749 5753 5757 5761 5765 5768 5771 5774 5777 5779 5781 5782 5784 5785 5786 5787 5788 5788 5788 5788 5788 5788 5787 5786 5785 5783 5781
5631 5636 5641 5645 5648 5652 5656 5660 5667 5672 5677 5685 5691 5697 5702 5707 5712 5717 5721 5726 5731 5735 5740 5744 5748 5752 5756 5759 5763 5766 5768 5770 5772 5774 5776 5777 5778 5779 5780 5780 5780 5780 5781 5780 5780 5778 5777 5775 5774
5627 5631 5635 5638 5641 5645 5649 5653 5658 5664 5671 5677 5683 5688 5693 5698 5703 5707 5712 5716 5721 5726 5731 5736 5739 5743 5747 5750 5754 5757 5759 5762 5764 5765 5767 5769 5770 5771 5772 5772 5772 5773 5773 5772 5772 5771 5769 5768 5766
5622 5626 5629 5631 5633 5637 5643 5646 5651 5658 5664 5669 5674 5679 5684 5688 5693 5698 5702 5707 5712 5717 5722 5726 5730 5734 5738 5741 5745 5748 5750 5753 5755 5757 5758 5760 5761 5762 5763 5764 5764 5764 5764 5764 5763 5763 5761 5760 5758
5617 5621 5625 5627 5629 5633 5636 5639 5645 5650 5655 5660 5665 5669 5674 5679 5684 5689 5693 5699 5704 5708 5712 5717 5721 5725 5729 5732 5735 5738 5741 5744 5746 5748 5749 5751 5753 5754 5755 5755 5756 5756 5756 5755 5754 5754 5753 5751 5750
5613 5616 5619 5622 5624 5627 5629 5633 5639 5643 5647 5652 5656 5660 5665 5670 5675 5680 5684 5689 5694 5698 5703 5708 5712 5715 5719 5722 5726 5729 5732 5734 5737 5738 5740 5742 5743 5745 5745 5746 5746 5747 5747 5746 5746 5745 5744 5743 5741
5610 5611 5614 5616 5618 5620 5624 5628 5632 5636 5640 5645 5649 5653 5657 5662 5666 5671 5676 5680 5684 5689 5693 5698 5702 5706 5709 5713 5716 5719 5722 5725 5727 5729 5731 5733 5734 5735 5736 5737 5737 5737 5737 5737 5737 5736 5735 5734 5732
5606 5607 5609 5611 5613 5616 5618 5624 5626 5629 5633 5637 5641 5645 5649 5653 5658 5662 5667 5671 5675 5680 5684 5688 5692 5696 5699 5702 5706 5709 5712 5715 5717 5720 5722 5723 5725 5726 5727 5727 5727 5728 5728 5728 5727 5727 5725 5724 5722
5601 5602 5604 5607 5609 5610 5613 5619 5619 5622 5625 5629 5633 5638 5641 5645 5649 5653 5658 5662 5666 5670 5675 5678 5682 5686 5689 5692 5696 5699 5702 5705 5707 5710 5712 5713 5715 5716 5717 5717 5718 5718 5718 5718 5717 5717 5716 5714 5712